Flag for Congo Dem.Rep. Weather past 2 weeks in Bukavu, Congo Dem.Rep.

Now
64 °F

Passing clouds.


Feels Like: 64 °F
Forecast: 56 / 70 °F
Wind: 3 mph from Northwest

Location: Kigali Airport

Current Time: Jul 24, 2014 at 2:52:59 AM

Latest Report: Jul 24, 2014 at 2:30 AM


Visibility: N/A

Pressure: 30.15 "Hg

Humidity: 68%

Dew point: 54 °F

Location of BukavuLocation

Historic Weather in Bukavu — Graph

°F

Bukavu temperature yesterday

Maximum temperature yesterday: 82 °F (at 3:00 PM)
Minimum temperature yesterday: 63 °F (at 4:30 AM)
Average temperature yesterday: 71 °F

Past Weeks' High & Low Weather Summary

 TemperatureHumidityPressure
High86 °F (Jul 9, 3:30 PM)100% (Jul 19, 4:00 AM)30.30 "Hg (Jul 19, 4:00 AM)
Low55 °F (Jul 19, 4:00 AM)29% (Jul 9, 3:30 PM)30.07 "Hg (Jul 14, 3:00 PM)
Average73 °F57%30.18 "Hg
* Reported Jul 9 2:00 AM — Jul 24 2:00 AM, Bukavu, Weather by CustomWeather, © 2014

Note: Actual official high and low records may vary slightly from our data, if they occured in-between our weather recording intervals... More about our weather records

Advertising

Bukavu weather history for previous 24 hours

 ConditionsComfort  
Time TempWeatherWind HumidityBarometerVisibility
2:00 AM
Jul 24
64 °FPassing clouds.3 mph68%30.15 "HgN/A
1:30 AM64 °FPassing clouds.5 mph68%30.15 "HgN/A
1:00 AM66 °FPassing clouds.5 mph64%30.15 "HgN/A
12:30 AM66 °FPassing clouds.3 mph60%30.15 "HgN/A
12:00 AM66 °FPassing clouds.3 mph60%30.15 "HgN/A
11:30 PM
Jul 23
66 °FPassing clouds.3 mph60%30.18 "HgN/A
11:00 PM68 °FPassing clouds.5 mph56%30.18 "HgN/A
10:30 PM68 °FPassing clouds.5 mph60%30.15 "HgN/A
10:00 PM70 °FPassing clouds.No wind57%30.18 "HgN/A
9:30 PM72 °FPassing clouds.3 mph53%30.15 "HgN/A
9:00 PM72 °FPassing clouds.3 mph50%30.15 "HgN/A
8:30 PM72 °FPassing clouds.3 mph50%30.15 "HgN/A
8:00 PM73 °FPassing clouds.6 mph47%30.12 "HgN/A
7:30 PM73 °FPassing clouds.3 mph44%30.12 "HgN/A
7:00 PM73 °FPassing clouds.3 mph47%30.09 "HgN/A
6:30 PM75 °FPassing clouds.5 mph44%30.09 "HgN/A
6:00 PM77 °FPassing clouds.5 mph42%30.09 "HgN/A
5:30 PM79 °FPassing clouds.7 mph39%30.09 "HgN/A
5:00 PM81 °FPassing clouds.7 mph37%30.09 "HgN/A
4:30 PM82 °FPassing clouds.7 mph35%30.09 "HgN/A
4:00 PM82 °FPassing clouds.7 mph35%30.09 "HgN/A
3:30 PM82 °FPassing clouds.9 mph32%30.09 "HgN/A
3:00 PM82 °FPassing clouds.9 mph32%30.09 "HgN/A
11:00 AM77 °FSunny.7 mph42%30.21 "Hg10 mi
10:00 AM73 °FPassing clouds.13 mph47%30.24 "HgN/A
8:00 AM66 °FPartly sunny.No wind73%30.21 "Hg5 mi
7:30 AM64 °FBroken clouds.No wind78%30.21 "Hg5 mi
7:00 AM64 °FScattered clouds.3 mph78%30.18 "HgN/A
6:30 AM64 °FScattered clouds.No wind78%30.18 "HgN/A
6:00 AM64 °FPassing clouds.No wind73%30.15 "HgN/A
5:30 AM63 °FPassing clouds.5 mph83%30.15 "HgN/A
5:00 AM63 °FPassing clouds.5 mph83%30.15 "HgN/A
4:30 AM63 °FPassing clouds.5 mph83%30.12 "HgN/A
4:00 AM64 °FPassing clouds.No wind78%30.12 "HgN/A
3:30 AM64 °FPassing clouds.3 mph78%30.12 "HgN/A
3:00 AM66 °FPassing clouds.No wind73%30.12 "HgN/A
2:00 AM68 °FPassing clouds.No wind69%30.12 "HgN/A
Weather by CustomWeather, © 2014

See weather overviewHow to use our weather pages